Location: Spring Creek
(38.2870°N, 100.2160°W)
Time: 23:16:14
(UTC+00:00)

BREEZE-M R/B - Pass Details

Date: 08 May 2021
Orbit: 311 x 4501 km, 49.7° (Epoch: 21 June)

Event Time Altitude Azimuth Distance (km) Brightness Sun altitude
Exits shadow 09:01:28 27° 298° (WNW) 1,420 4.7 -25.0°
Maximum altitude 09:04:15 76° 217° (SW) 1,010 3.8 -24.7°
Drops below altitude 10° 09:14:08 10° 134° (SE) 4,303 7.3 -23.4°
Sets 09:19:06 0° 133° (SE) 6,032 8.1 -22.8°
